Peoria, IL

3:30 AM CDT on June 26, 2017 (GMT -0500)
Greater Peoria Regional

Weather History for KPIA - February, 2014

Change the Weather History Date:

Thursday, February 20, 2014

  Actual Average Record
Temperature  
Mean Temperature 45 °F 31 °F  
Max Temperature 53 °F 39 °F 74 °F (2017)
Min Temperature 36 °F 23 °F -13 °F (1885)
Degree Days  
Heating Degree Days 20 34  
Month to date heating degree days 970 737  
Since 1 July heating degree days 4838 4258  
Cooling Degree Days 0 0  
Month to date cooling degree days 0 0  
Year to date cooling degree days 0 0  
Moisture  
Dew Point 36 °F    
Average Humidity 85    
Maximum Humidity 100    
Minimum Humidity 70    
Precipitation  
Precipitation 0.78 in 0.07 in 1.77 in (1977)
Month to date precipitation 2.71 1.19  
Year to date precipitation 4.81 2.97  
Snow  
Snow 0.00 in 0.20 in 6.00 in (1904)
Month to date snowfall 21.6 4.7  
Since 1 July snowfall 48.9 19.8  
Snow Depth 6.00 in    
Sea Level Pressure  
Sea Level Pressure 29.50 in    
Wind  
Wind Speed 16 mph (East)    
Max Wind Speed 41 mph    
Max Gust Speed 53 mph    
Visibility 5 miles    
Events Fog , Rain , Thunderstorm    
T = Trace of Precipitation, MM = Missing Value Source: NWS Daily Summary

Daily Weather History Graph

Daily Weather History Graph

Search for Another Location

Airport or City:

Trip Planner

Search our weather history database for the weather conditions in past years. The results will help you decide how hot, cold, wet, or windy it might be!

Date:

Astronomy

Feb. 20, 2014 Rise Set
Actual Time 6:45 AM CST 5:39 PM CST
Civil Twilight 6:18 AM CST 6:07 PM CST
Nautical Twilight 5:46 AM CST 6:39 PM CST
Astronomical Twilight 5:14 AM CST 7:11 PM CST
Moon 11:36 PM CST (2/20) 9:26 AM CST (2/20)
Length of Visible Light 11h 49m
Length of Day
10h 53m
Waning Gibbous, 70% of the Moon is Illuminated
Feb 20
Waning Gibbous
Feb 22
Last Quarter
Mar 1
New
Mar 8
First Quarter
Mar 16
Full

Hourly Weather History & Observations

Time (CST) Temp. Windchill Dew Point Humidity Pressure Visibility Wind Dir Wind Speed Gust Speed Precip Events Conditions
12:54 AM 39.0 °F 30.3 °F 30.9 °F 73% 29.78 in 6.0 mi ESE 16.1 mph 21.9 mph 0.06 in Rain Rain
1:54 AM 39.0 °F 31.8 °F 34.0 °F 82% 29.75 in 5.0 mi ESE 11.5 mph 20.7 mph 0.16 in Rain Light Rain
2:23 AM 39.0 °F 32.3 °F 35.1 °F 86% 29.73 in 3.0 mi East 10.4 mph - 0.17 in Rain , Thunderstorm Thunderstorms and Rain
2:54 AM 39.9 °F 35.1 °F 36.0 °F 86% 29.71 in 5.0 mi NNE 6.9 mph - 0.26 in Rain , Thunderstorm Thunderstorms and Rain
3:12 AM 39.0 °F 29.9 °F 35.1 °F 86% 29.67 in 8.0 mi ENE 17.3 mph - 0.03 in Rain Light Rain
3:44 AM 39.0 °F 35.7 °F 35.1 °F 86% 29.68 in 9.0 mi North 4.6 mph - 0.04 in Rain , Thunderstorm Light Thunderstorms and Rain
3:54 AM 37.9 °F 33.5 °F 34.0 °F 86% 29.70 in 3.0 mi North 5.8 mph - 0.06 in Rain , Thunderstorm Thunderstorms and Rain
4:01 AM 37.0 °F 31.0 °F 34.0 °F 89% 29.68 in 2.0 mi NNE 8.1 mph - 0.11 in Rain , Thunderstorm Heavy Thunderstorms and Rain
4:15 AM 37.0 °F 31.0 °F 34.0 °F 89% 29.68 in 4.0 mi North 8.1 mph - 0.18 in Rain Light Rain
4:54 AM 36.0 °F 27.5 °F 33.1 °F 89% 29.65 in 5.0 mi ENE 12.7 mph - 0.19 in Rain Light Rain
5:33 AM 36.0 °F 27.5 °F 33.1 °F 89% 29.63 in 5.0 mi ENE 12.7 mph - 0.02 in   Overcast
5:54 AM 36.0 °F 27.5 °F 33.1 °F 89% 29.64 in 5.0 mi ENE 12.7 mph - 0.02 in Rain Light Rain
6:33 AM 36.0 °F 27.1 °F 33.1 °F 89% 29.60 in 5.0 mi ENE 13.8 mph - 0.00 in   Overcast
6:49 AM 37.4 °F 29.3 °F 33.8 °F 87% 29.60 in 5.0 mi East 12.7 mph - 0.00 in   Overcast
6:54 AM 36.0 °F 26.7 °F 33.1 °F 89% 29.61 in 5.0 mi ENE 15.0 mph - 0.00 in   Overcast
7:19 AM 36.0 °F 26.0 °F 33.1 °F 89% 29.59 in 3.0 mi East 17.3 mph - N/A   Overcast
7:54 AM 37.0 °F 28.1 °F 34.0 °F 89% 29.59 in 3.0 mi East 15.0 mph - N/A   Overcast
8:07 AM 37.0 °F 27.7 °F 33.1 °F 86% 29.57 in 3.0 mi East 16.1 mph - N/A   Overcast
8:39 AM 36.0 °F 26.7 °F 33.1 °F 89% 29.53 in 2.5 mi East 15.0 mph - 0.00 in Rain Light Rain
8:47 AM 37.0 °F 28.1 °F 34.0 °F 89% 29.52 in 2.0 mi East 15.0 mph - 0.01 in Rain Light Rain
8:54 AM 37.0 °F 28.1 °F 34.0 °F 89% 29.52 in 2.5 mi ENE 15.0 mph - 0.01 in Rain Light Rain
9:00 AM 37.0 °F 27.7 °F 34.0 °F 89% 29.51 in 3.0 mi East 16.1 mph - 0.00 in   Overcast
9:14 AM 37.9 °F 29.2 °F 35.1 °F 89% 29.53 in 4.0 mi East 15.0 mph - 0.00 in   Overcast
9:54 AM 37.9 °F 29.6 °F 35.1 °F 89% 29.52 in 4.0 mi East 13.8 mph - 0.00 in   Overcast
10:05 AM 37.9 °F 30.9 °F 35.1 °F 89% 29.49 in 3.0 mi East 10.4 mph - N/A   Overcast
10:16 AM 37.9 °F 30.0 °F 35.1 °F 89% 29.48 in 3.0 mi East 12.7 mph - N/A   Overcast
10:54 AM 39.0 °F 31.0 °F 36.0 °F 89% 29.46 in 3.0 mi East 13.8 mph - 0.00 in Rain Light Rain
11:02 AM 39.0 °F 31.8 °F 36.0 °F 89% 29.45 in 2.0 mi East 11.5 mph - 0.00 in Rain Light Rain
11:12 AM 37.9 °F 31.5 °F 36.0 °F 93% 29.44 in 1.8 mi East 9.2 mph - 0.01 in Rain Light Rain
11:23 AM 39.0 °F 32.8 °F 36.0 °F 89% 29.44 in 0.8 mi East 9.2 mph - 0.01 in   Overcast
11:40 AM 39.0 °F 32.8 °F 37.0 °F 93% 29.44 in 0.2 mi North 9.2 mph - 0.01 in Fog Fog
11:54 AM 39.0 °F 33.4 °F 37.0 °F 93% 29.43 in 0.2 mi NNE 8.1 mph - 0.01 in Fog Fog
12:01 PM 37.9 °F 29.6 °F 36.0 °F 93% 29.40 in 0.2 mi ENE 13.8 mph - N/A Fog Fog
12:54 PM 37.9 °F 30.9 °F 36.0 °F 93% 29.36 in 0.2 mi East 10.4 mph - N/A Fog Fog
1:54 PM 39.9 °F 33.4 °F 39.0 °F 97% 29.30 in 0.1 mi East 10.4 mph - N/A Fog Fog
2:39 PM 46.0 °F 41.0 °F 44.1 °F 93% 29.23 in 0.5 mi SE 10.4 mph - N/A Fog Fog
2:44 PM 46.9 °F - 45.0 °F 93% 29.23 in 1.0 mi SE 10.4 mph - N/A   Mostly Cloudy
2:47 PM 48.0 °F - 46.0 °F 93% 29.22 in 1.5 mi SE 11.5 mph - N/A   Mostly Cloudy
2:54 PM 50.0 °F - 48.0 °F 93% 29.22 in 2.5 mi SSE 11.5 mph - N/A   Mostly Cloudy
3:01 PM 51.1 °F - 48.0 °F 89% 29.21 in 4.0 mi SSE 16.1 mph 21.9 mph N/A   Mostly Cloudy
3:10 PM 52.0 °F - 50.0 °F 93% 29.20 in 6.0 mi South 19.6 mph - N/A   Scattered Clouds
3:54 PM 52.0 °F - 50.0 °F 93% 29.22 in 6.0 mi South 29.9 mph 34.5 mph 0.01 in Rain Light Rain
4:54 PM 52.0 °F - 43.0 °F 71% 29.26 in 10.0 mi SW 20.7 mph 29.9 mph 0.00 in   Scattered Clouds
5:35 PM 46.0 °F 37.2 °F 37.0 °F 71% 29.32 in 10.0 mi WSW 26.5 mph 42.6 mph N/A   Overcast
5:54 PM 42.1 °F 32.1 °F 35.1 °F 76% 29.37 in 10.0 mi WSW 25.3 mph 38.0 mph N/A   Overcast
6:54 PM 39.0 °F 27.6 °F 30.9 °F 73% 29.44 in 10.0 mi WSW 27.6 mph 43.7 mph 0.00 in   Overcast
7:54 PM 39.0 °F 28.0 °F 30.0 °F 70% 29.49 in 10.0 mi WSW 25.3 mph 38.0 mph N/A   Overcast
8:54 PM 37.9 °F 27.6 °F 28.9 °F 70% 29.54 in 10.0 mi WSW 20.7 mph 33.4 mph N/A   Overcast
9:54 PM 37.9 °F 28.2 °F 28.0 °F 68% 29.55 in 10.0 mi WSW 18.4 mph 31.1 mph N/A   Partly Cloudy
10:54 PM 37.0 °F 26.7 °F 28.9 °F 73% 29.54 in 10.0 mi WSW 19.6 mph 29.9 mph N/A   Scattered Clouds
11:10 PM 37.0 °F 26.4 °F 28.9 °F 73% 29.52 in 10.0 mi WSW 20.7 mph 28.8 mph N/A   Mostly Cloudy
11:37 PM 37.0 °F 27.0 °F 28.9 °F 73% 29.50 in 10.0 mi West 18.4 mph 31.1 mph N/A   Overcast
11:54 PM 37.0 °F 26.4 °F 28.0 °F 70% 29.52 in 10.0 mi West 20.7 mph 38.0 mph N/A   Overcast